Погода в Аспиндзе

Погода в Аспиндзе : погода сейчас, прогноз погоды и архив. Всё, что Вы хотите узнать о погоде в Аспиндзе!

Поиск расширенной информации на нашем сайте:

Полезная информация: ссангйонг кайрон ремонт

Другие новости

Новости СМИ2

Главная страница сайта

Новости сайта

03.07.2017

Напоминаем, что на нашем специализированном сайте Метеоцентр.Азия вы можете получить высокодетализированные автоматические прогнозы погоды по пунктам России, СНГ и мира в авиационном формате (включающие направление и скорость ветра, видимость, явления погоды, количество и форму облачности, нижнюю и верхнюю границу облачности).

Рекомендуем: Например, при воспроизведении рекламные экраны в спб состоянии "покоя"

Погода в Аспиндзе - сегодня

Время (UTC), дата Ветер
(°,м/с) 
Видим.   Явления Облачность Т
(°С)
Тd
(°С)
f(%) Тe
(°С)
Pmin
(гПа)
dP
(гПа)
Po
(мм)
O2
(г/м3)
Тmin Tmax R s Состояние
почвы
15 06.04.18 050 (СВ) 20000 м    ясно 
+17.2 +2.5 37 +17  1012.7  0.4  677  256    +20.3       
21 06.04.18 тихо ()   4000 м    ясно 
+3.8 +1.2 83 +4  1021  0.7  679  269           
00 07.04.18 тихо ()   4000 м    ясно 
+1.4 -0.5 87 +1  1022.6  0.5  679  272           
03 07.04.18 тихо ()   20000 м    ясно 
-0.8 -1.7 94 -1  1025.5  1.6  680  275           
09 07.04.18 тихо ()   20000 м    ясно 
+15.2 +3.6 46 +15  1019.8  0.4  681  259           
12 07.04.18 тихо ()   20000 м    ясно 
+21 +6.7 39 +21  1015.5  -1.6  680  253           
21 07.04.18 тихо ()   4000 м    ясно 
+6.2 +1.7 73 +6  1021.7  1.2  680  267           
00 08.04.18 тихо ()   4000 м    ясно 
+2.2 +0.6 89 +2  1024.2  0.7  680  272           
21 08.04.18 090 (В) 4000 м    ясно 
+6 +3.4 83 +4  1022.4  0.8  680  267           
00 09.04.18 тихо ()   4000 м    ясно 
+4.1 +2.1 87 +4  1024.9  1.5  681  270           
06 09.04.18 тихо ()   20000 м    ясно 
+11.2 +4.3 62 +11  1023.2  0.4  682  263  +1.2         
09 09.04.18 тихо ()   20000 м    ясно 
+18.8 +6.4 44 +19  1019  -1  681  256           
21 09.04.18 тихо ()   4000 м    ясно 
+6.8 +1.3 68 +7  1024.3  0.4  682  268           
00 10.04.18 тихо ()   4000 м    ясно 
+4.5 +1.4 80 +5  1025.8  0.2  682  270           
09 10.04.18 090 (В) 20000 м    1/0 верхняя 
[Ci fib]
+17.2 +5.9 47 +19  1016.4  -3  679  256           
03 14.04.18 тихо ()   20000 м    10/10 1000 м 
[Sc]
+8.4 +6.8 90 +8  1014.2  0.7  677  264         
21 15.04.18 тихо ()   4000 м    ясно 
+0.2 -1.9 86 1028.8  1.4  683  275           
00 16.04.18 тихо ()   4000 м    ясно 
-1.8 -3 91 -2  1029.7  683  277           
03 17.04.18 тихо ()   20000 м    ясно 
-2.3 -3.6 91 -2  1028.4  0.4  682  277  -2.5        замёрзшая 
09 17.04.18 тихо ()   20000 м    4/0 средняя 
[Ac lent]
+13.8 -0.5 37 +14  1018.4  -2.7  680  261           
21 17.04.18 тихо ()   4000 м    ясно 
+2.8 -1.7 72 +3  1025.6  1.8  681  272           
00 18.04.18 тихо ()   4000 м    ясно 
+0.8 -2.1 81 +1  1027.2  0.6  682  274           
09 18.04.18 тихо ()   20000 м    8/0 средняя 
[Ac lent]
+16.2 +2.7 40 +16  1020.7  -1.1  682  259           
12 18.04.18 тихо ()   20000 м    9/0 средняя 
[Ac lent]
+20.4 +1.7 29 +20  1016.6  -2.1  680  255           
00 19.04.18 тихо ()   4000 м    ясно 
+2.6 -0.7 79 +3  1025.6  0.4  681  272           
Время (UTC), дата Ветер
(°,м/с) 
Видим.   Явления Облачность Т
(°С)
Тd
(°С)
f(%) Тe
(°С)
Pmin
(гПа)
dP
(гПа)
Po
(мм)
O2
(г/м3)
Тmin Tmax R s Состояние
почвы

Для получения пояснительной информации подведите курсор к названию столбца.

ПОГОДА в Аспиндзе - архив

Всё, что Вы хотите узнать о погоде в Аспиндзе - удобно и подробно!

Выберите нужную дату (начиная с 1 января 2015* года) и нажмите кнопку "Найти".
Будут отображены архивные сводки погоды по пункту Аспиндза, начиная с указанной даты.


Отображать данные в формате CSV (для использования в таблицах Excel)


Внимание! Наш архив погоды предназначен исключительно для личного некоммерческого использования в познавательных целях. Если Вам необходимы официальные справки о состоянии погоды (для производственных, юридических, коммерческих и т.п. целей), обращайтесь в органы Росгидромета.

*Примечание: данная дата относится к архиву по метеостанциям СССР (Россия, СНГ, Балтия).
Архив по метеостанциям Зарубежной Европы и Азии (кроме Китая) хранится 10 дней, по другим регионам земного шара (Китай, Африка, Америка, Австралия, Океания) - 1 день.

Аспиндза - район местоположения метеостанции


Название, широта, долгота, высота метеостанции:
Аспиндза 41.6°ш. 43.2°д. 983 м над ур. моря [Грузия]

Дополнительная информация

В oтличие oт бoльшинства пoгoдных сайтoв мы публикуем пoдрoбную метеoинфoрмацию в детальнoм прoфессиoнальнoм фoрмате.

Характеристики температуры и влажнoсти вoздуха измеряются на высoте 2 м в тени вдали oт зданий и деревьев.
Скoрoсть ветра измеряется на высoте 10 м (на урoвне рoста челoвека скoрoсть ветра ниже в 1.5-2 раза). Если метеoстанция нахoдится в гoрoде или в лесу, тo скoрoсть ветра занижена на 2-4 м/с пo сравнению с oткрытым местoм. Скoрoсть ветра над акватoриями крупных рек и oзёр, а также на вершинах хoлмoв на 2-5 м/с выше, чем в oбычных услoвиях.
Атмoсфернoе давление в разных тoчках местнoсти мoжет значительнo oтличаться oт давления на метеoстанции, в зависимoсти oт услoвий рельефа (при пoдъёме на 10 м давление пoнижается примернo на 1 мм рт.ст.).